When you browse on this site, cookies collect data to enhance your experience and personalize the content and advertising you see.
Visit our Privacy Policy to learn more. By continuing to use the site, you agree to this use of cookies and data.
  • en France
  • Liste des pays
  • À 7 jours
  • Température de l'eau
  • Carte météo
  • Widgets météo
  • user-avatar
    Se connecter

    Météo par heure à Burco

    Ce jour, 27 Mai, Mercredi

    Heure Température Précipitation Vent Pression Humidité
    00:00 +27°C° 0.2 mm 4 m/s 672 mmHg 67%
    01:00 +26°C° 0 mm 4 m/s 671 mmHg 68%
    02:00 +26°C° 0 mm 4 m/s 671 mmHg 69%
    03:00 +26°C° 0 mm 4 m/s 671 mmHg 71%
    04:00 +25°C° 0 mm 4 m/s 671 mmHg 72%
    05:00 +25°C° 0 mm 4 m/s 671 mmHg 72%
    06:00 +25°C° 0 mm 5 m/s 672 mmHg 73%
    07:00 +26°C° 0 mm 5 m/s 672 mmHg 69%
    08:00 +27°C° 0 mm 6 m/s 673 mmHg 65%
    09:00 +28°C° 0 mm 6 m/s 673 mmHg 61%
    10:00 +29°C° 0 mm 6 m/s 673 mmHg 55%
    11:00 +32°C° 0 mm 6 m/s 673 mmHg 49%
    12:00 +33°C° 0 mm 6 m/s 673 mmHg 43%
    13:00 +34°C° 0 mm 6 m/s 672 mmHg 41%
    14:00 +34°C° 0 mm 5 m/s 672 mmHg 38%
    15:00 +35°C° 0 mm 5 m/s 672 mmHg 35%
    16:00 +33°C° 0.3 mm 5 m/s 671 mmHg 43%
    17:00 +30°C° 0.3 mm 5 m/s 671 mmHg 51%
    18:00 +28°C° 0.3 mm 4 m/s 671 mmHg 59%
    19:00 +27°C° 0.9 mm 4 m/s 671 mmHg 61%
    20:00 +27°C° 0.9 mm 4 m/s 672 mmHg 63%
    21:00 +26°C° 0.9 mm 3 m/s 672 mmHg 65%
    22:00 +26°C° 0 mm 3 m/s 672 mmHg 63%
    23:00 +26°C° 0 mm 4 m/s 672 mmHg 60%

    Demain, 28 Mai, Jeudi

    Heure Température Précipitation Vent Pression Humidité
    00:00 +27°C° 0 mm 4 m/s 672 mmHg 58%
    01:00 +26°C° 0 mm 4 m/s 671 mmHg 59%
    02:00 +26°C° 0 mm 4 m/s 671 mmHg 60%
    03:00 +25°C° 0 mm 5 m/s 671 mmHg 61%
    04:00 +25°C° 0 mm 5 m/s 671 mmHg 64%
    05:00 +25°C° 0 mm 5 m/s 671 mmHg 67%
    06:00 +25°C° 0 mm 5 m/s 672 mmHg 69%
    07:00 +26°C° 0 mm 7 m/s 672 mmHg 64%
    08:00 +27°C° 0 mm 8 m/s 673 mmHg 59%
    09:00 +28°C° 0 mm 9 m/s 673 mmHg 54%
    10:00 +31°C° 0 mm 8 m/s 673 mmHg 49%
    11:00 +32°C° 0 mm 8 m/s 673 mmHg 44%
    12:00 +34°C° 0 mm 7 m/s 673 mmHg 39%
    13:00 +34°C° 0 mm 6 m/s 672 mmHg 36%
    14:00 +35°C° 0 mm 6 m/s 672 mmHg 33%
    15:00 +35°C° 0 mm 5 m/s 672 mmHg 30%
    16:00 +35°C° 0 mm 4 m/s 671 mmHg 32%
    17:00 +34°C° 0 mm 4 m/s 671 mmHg 34%
    18:00 +34°C° 0 mm 4 m/s 671 mmHg 36%
    19:00 +33°C° 0 mm 5 m/s 671 mmHg 41%
    20:00 +30°C° 0 mm 6 m/s 672 mmHg 45%
    21:00 +29°C° 0 mm 7 m/s 672 mmHg 50%
    22:00 +29°C° 0 mm 6 m/s 672 mmHg 53%
    23:00 +28°C° 0 mm 6 m/s 671 mmHg 56%

    Après-demain, 29 Mai, Vendredi

    Heure Température Précipitation Vent Pression Humidité
    00:00 +27°C° 0 mm 6 m/s 671 mmHg 59%
    01:00 +27°C° 0 mm 5 m/s 671 mmHg 61%
    02:00 +27°C° 0 mm 5 m/s 671 mmHg 62%
    03:00 +26°C° 0 mm 5 m/s 670 mmHg 63%
    04:00 +26°C° 0 mm 5 m/s 670 mmHg 65%
    05:00 +24°C° 0 mm 6 m/s 671 mmHg 67%
    06:00 +24°C° 0 mm 6 m/s 671 mmHg 68%
    07:00 +26°C° 0 mm 7 m/s 671 mmHg 65%
    08:00 +27°C° 0 mm 8 m/s 672 mmHg 62%
    09:00 +28°C° 0 mm 9 m/s 673 mmHg 58%
    10:00 +31°C° 0 mm 9 m/s 672 mmHg 53%
    11:00 +32°C° 0 mm 8 m/s 672 mmHg 47%
    12:00 +34°C° 0 mm 8 m/s 672 mmHg 42%
    13:00 +34°C° 0 mm 7 m/s 672 mmHg 39%
    14:00 +35°C° 0 mm 6 m/s 671 mmHg 35%
    15:00 +36°C° 0 mm 5 m/s 671 mmHg 32%
    16:00 +35°C° 0 mm 5 m/s 670 mmHg 33%
    17:00 +35°C° 0 mm 4 m/s 670 mmHg 34%
    18:00 +34°C° 0 mm 4 m/s 670 mmHg 36%
    19:00 +32°C° 0.3 mm 5 m/s 670 mmHg 44%
    20:00 +29°C° 0.3 mm 6 m/s 671 mmHg 52%
    21:00 +27°C° 0.3 mm 8 m/s 671 mmHg 61%
    22:00 +27°C° 0.1 mm 7 m/s 671 mmHg 61%
    23:00 +27°C° 0.1 mm 6 m/s 671 mmHg 62%

    30 Mai, Samedi

    Heure Température Précipitation Vent Pression Humidité
    00:00 +27°C° 0.1 mm 6 m/s 670 mmHg 63%
    01:00 +26°C° 0 mm 6 m/s 670 mmHg 64%
    02:00 +26°C° 0 mm 6 m/s 670 mmHg 65%
    03:00 +24°C° 0 mm 6 m/s 669 mmHg 67%
    04:00 +24°C° 0 mm 6 m/s 669 mmHg 68%
    05:00 +24°C° 0 mm 7 m/s 670 mmHg 70%
    06:00 +23°C° 0 mm 7 m/s 670 mmHg 71%
    07:00 +24°C° 0 mm 8 m/s 670 mmHg 68%
    08:00 +26°C° 0 mm 9 m/s 671 mmHg 65%
    09:00 +27°C° 0 mm 9 m/s 672 mmHg 62%
    10:00 +29°C° 0 mm 9 m/s 672 mmHg 56%
    11:00 +31°C° 0 mm 9 m/s 671 mmHg 50%
    12:00 +33°C° 0 mm 9 m/s 671 mmHg 45%
    13:00 +33°C° 0 mm 9 m/s 671 mmHg 43%
    14:00 +34°C° 0 mm 8 m/s 671 mmHg 40%
    15:00 +34°C° 0 mm 8 m/s 671 mmHg 38%
    16:00 +33°C° 0 mm 8 m/s 671 mmHg 42%
    17:00 +32°C° 0 mm 8 m/s 670 mmHg 45%
    18:00 +31°C° 0 mm 9 m/s 670 mmHg 49%
    19:00 +29°C° 0 mm 9 m/s 671 mmHg 52%
    20:00 +28°C° 0 mm 9 m/s 671 mmHg 56%
    21:00 +27°C° 0 mm 9 m/s 672 mmHg 60%
    22:00 +27°C° 0 mm 8 m/s 671 mmHg 61%
    23:00 +26°C° 0 mm 8 m/s 671 mmHg 62%

    31 Mai, Dimanche

    Heure Température Précipitation Vent Pression Humidité
    00:00 +26°C° 0 mm 7 m/s 671 mmHg 63%
    01:00 +24°C° 0 mm 7 m/s 671 mmHg 65%
    02:00 +24°C° 0 mm 7 m/s 670 mmHg 66%
    03:00 +24°C° 0 mm 7 m/s 670 mmHg 67%
    04:00 +23°C° 0 mm 7 m/s 670 mmHg 69%
    05:00 +23°C° 0 mm 7 m/s 671 mmHg 71%
    06:00 +23°C° 0 mm 7 m/s 671 mmHg 73%
    07:00 +24°C° 0 mm 8 m/s 671 mmHg 69%
    08:00 +26°C° 0 mm 9 m/s 672 mmHg 64%
    09:00 +27°C° 0 mm 10 m/s 672 mmHg 60%
    10:00 +28°C° 0 mm 10 m/s 672 mmHg 55%
    11:00 +31°C° 0 mm 10 m/s 672 mmHg 49%
    12:00 +33°C° 0 mm 9 m/s 672 mmHg 44%
    13:00 +33°C° 0 mm 9 m/s 672 mmHg 43%
    14:00 +33°C° 0 mm 9 m/s 672 mmHg 42%
    15:00 +34°C° 0 mm 9 m/s 671 mmHg 41%
    16:00 +33°C° 0 mm 9 m/s 671 mmHg 43%
    17:00 +32°C° 0 mm 9 m/s 671 mmHg 46%
    18:00 +31°C° 0 mm 9 m/s 671 mmHg 49%
    19:00 +29°C° 0 mm 8 m/s 671 mmHg 53%
    20:00 +28°C° 0 mm 8 m/s 672 mmHg 57%
    21:00 +27°C° 0 mm 8 m/s 672 mmHg 61%
    22:00 +26°C° 0 mm 8 m/s 672 mmHg 63%
    23:00 +26°C° 0 mm 8 m/s 672 mmHg 65%

    1 Juin, Lundi

    Heure Température Précipitation Vent Pression Humidité
    00:00 +24°C° 0 mm 8 m/s 671 mmHg 67%
    01:00 +24°C° 0 mm 8 m/s 671 mmHg 68%
    02:00 +24°C° 0 mm 8 m/s 671 mmHg 69%
    03:00 +23°C° 0 mm 8 m/s 670 mmHg 69%
    04:00 +23°C° 0 mm 8 m/s 671 mmHg 69%
    05:00 +23°C° 0 mm 8 m/s 671 mmHg 69%
    06:00 +22°C° 0 mm 8 m/s 671 mmHg 68%
    07:00 +24°C° 0 mm 8 m/s 672 mmHg 63%
    08:00 +26°C° 0 mm 9 m/s 672 mmHg 57%
    09:00 +27°C° 0 mm 10 m/s 673 mmHg 51%
    10:00 +28°C° 0 mm 10 m/s 673 mmHg 48%
    11:00 +31°C° 0 mm 10 m/s 672 mmHg 44%
    12:00 +32°C° 0 mm 10 m/s 672 mmHg 41%
    13:00 +32°C° 0 mm 9 m/s 672 mmHg 40%
    14:00 +33°C° 0 mm 9 m/s 671 mmHg 39%
    15:00 +33°C° 0 mm 9 m/s 671 mmHg 38%
    16:00 +33°C° 0 mm 8 m/s 671 mmHg 40%
    17:00 +32°C° 0 mm 8 m/s 671 mmHg 42%
    18:00 +31°C° 0 mm 8 m/s 671 mmHg 44%
    19:00 +31°C° 0 mm 8 m/s 671 mmHg 47%
    20:00 +29°C° 0 mm 8 m/s 671 mmHg 51%
    21:00 +28°C° 0 mm 9 m/s 671 mmHg 54%
    22:00 +27°C° 0 mm 9 m/s 671 mmHg 56%
    23:00 +26°C° 0 mm 9 m/s 671 mmHg 58%
    Voir plus